Flag for Belarus Weather past 2 weeks in Gomel, Belarus

30 °F


Feels Like: 27 °F
Forecast: 20 / 30 °F
Wind: 3 mph from Southwest

Location: Gomel'

Current Time: Nov 25, 2015 at 3:48:03 AM

Latest Report: Nov 25, 2015 at 3:00 AM

Visibility: N/A

Pressure: 30.21 "Hg

Humidity: 86%

Dew point: 27 °F

Location of GomelLocation

Historic Weather in Gomel — Graph


Gomel temperature yesterday

Maximum temperature yesterday: 36 °F (at 12:00 AM)
Minimum temperature yesterday: 30 °F (at 4:00 AM)
Average temperature yesterday: 32 °F

Past Weeks' High & Low Weather Summary

High48 °F (Nov 10, 2:00 PM)100% (Nov 10, 2:00 AM)30.24 "Hg (Nov 10, 2:00 AM)
Low30 °F (Nov 24, 4:00 AM)66% (Nov 11, 1:00 PM)29.36 "Hg (Nov 21, 1:00 AM)
Average41 °F91%29.76 "Hg
* Reported Nov 10 2:00 AM — Nov 25 2:00 AM, Gomel, Weather by CustomWeather, © 2015

Note: Actual official high and low records may vary slightly from our data, if they occured in-between our weather recording intervals... More about our weather records


Gomel weather history for previous 24 hours

Time TempWeatherWind HumidityBarometerVisibility
2:00 AM
Wed, Nov 25
30 °FOvercast.3 mph86%30.21 "HgN/A
1:00 AM30 °FOvercast.6 mph86%30.21 "HgN/A
12:00 AM30 °FOvercast.6 mph93%30.21 "HgN/A
11:30 PM
Tue, Nov 24
30 °FOvercast.6 mph93%30.21 "HgN/A
11:00 PM30 °FOvercast.8 mph93%30.21 "HgN/A
10:30 PM32 °FOvercast.6 mph87%30.21 "HgN/A
10:00 PM32 °FOvercast.6 mph87%30.21 "HgN/A
9:30 PM32 °FOvercast.8 mph87%30.21 "HgN/A
9:00 PM32 °FOvercast.10 mph87%30.24 "HgN/A
8:30 PM32 °FOvercast.10 mph87%30.24 "HgN/A
8:00 PM32 °FOvercast.10 mph87%30.21 "HgN/A
7:30 PM32 °FOvercast.10 mph87%30.21 "Hg6 mi
7:00 PM32 °FOvercast.10 mph87%30.21 "Hg6 mi
6:30 PM32 °FMostly cloudy.8 mph87%30.21 "Hg4 mi
6:00 PM32 °FOvercast.8 mph87%30.21 "Hg5 mi
5:30 PM32 °FOvercast.8 mph93%30.21 "Hg4 mi
5:00 PM32 °FOvercast.8 mph93%30.21 "Hg5 mi
4:30 PM34 °FLow clouds.13 mph93%30.21 "Hg6 mi
4:00 PM34 °FPartly sunny.10 mph93%30.21 "Hg4 mi
3:30 PM34 °FFog.8 mph93%30.21 "Hg3 mi
3:00 PM34 °FMostly cloudy.6 mph93%30.21 "Hg4 mi
2:30 PM32 °FMostly cloudy.8 mph100%30.21 "Hg4 mi
2:00 PM32 °FIce fog.8 mph100%30.21 "Hg3 mi
1:51 PM32 °FIce fog.6 mph100%30.21 "Hg3 mi
1:30 PM32 °FSnow flurries. Ice fog.6 mph100%30.21 "Hg1 mi
1:00 PM32 °FHeavy snow. Dense fog.6 mph100%30.21 "Hg0 mi
12:30 PM32 °FHeavy snow. Mostly cloudy.6 mph100%30.24 "Hg1 mi
11:46 AM32 °FSnow flurries. Ice fog.6 mph100%30.24 "Hg2 mi
11:30 AM32 °FIce fog.6 mph100%30.24 "Hg2 mi
11:00 AM32 °FIce fog.6 mph100%30.24 "Hg3 mi
10:30 AM30 °FIce fog.6 mph100%30.24 "Hg2 mi
10:00 AM30 °FIce fog.8 mph100%30.21 "Hg2 mi
9:30 AM30 °FIce fog.10 mph93%30.21 "Hg2 mi
9:00 AM30 °FIce fog.6 mph93%30.21 "Hg2 mi
8:30 AM30 °FIce fog.3 mph93%30.21 "Hg2 mi
7:30 AM30 °FIce fog.3 mph93%30.21 "Hg3 mi
6:30 AM30 °FIce fog.6 mph93%30.21 "Hg3 mi
6:00 AM30 °FIce fog.6 mph93%30.21 "Hg3 mi
5:00 AM30 °FIce fog.6 mph93%30.21 "Hg3 mi
4:00 AM30 °FIce fog.6 mph93%30.21 "Hg3 mi
3:00 AM32 °FIce fog.10 mph93%30.21 "Hg3 mi
Weather by CustomWeather, © 2015

See weather overviewHow to use our weather pages